Tracking 20093 objects as of 16-Dec-2019
HD Live streaming from Space Station
objects crossing your sky now

IRIDIUM 33 DEB

Track IRIDIUM 33 DEB now!
10-day predictions


NORAD ID: 38241
Int'l Code: 1997-051ZR
Perigee: 753.3 km
Apogee: 759.9 km
Inclination: 86.3 °
Period: 99.8 minutes
Semi major axis: 7127 km
RCS: 0.0216 m2 (small)
Launch date: September 14, 1997
Source: United States (US)
Launch site: TYURATAM MISSILE AND SPACE COMPLEX (TTMTR)

Note: This is SATELLITE DEBRIS
aabbcc
Your satellite tracking list
Your tracking list is empty




NASA's NSSDC Master Catalog

Two Line Element Set (TLE):
1 38241U 97051ZR  19349.42042509 +.00000415 +00000-0 +11859-3 0  9999
2 38241 086.3298 221.8122 0004636 106.2732 253.8979 14.42725988285585
Source of the keplerian elements: AFSPC